STARLINK-5586, 55376

Orbit data source: Space-Track

STARLINK-5586, 55376 is a payload satellite owned by SpaceX/Seattle (US) in LEO that was launched on Thu, 26 Jan 2023 UTC via an FALCON 9 launch vehicle from the Air Force Eastern Test Range (AFETR). Payload-class satellites include a variety of spacecraft equipped with specific instruments for various scientific and technological missions. These include communications satellites like Starlink; space stations such as the ISS; scientific satellites like the Hubble; Earth observation satellites from companies like Planet Labs, Umbra, and HawkEye 360; GPS; miniature CubeSats for education and research; and military/defense satellites.

Loading next visibility...
Identifier
55376, 2023-013AX
Orbit
LEO
Country
Flag of USUS
Related business
Manufacturer
SpaceX/Seattle
Mission
Operational Commercial Communications
Bus & Motor
STARLINK, Unknown motor
Mass
305 kg wet, ~290 kg dry
Launch date (UTC)
2023-01-26 (3 years ago)
Launch vehicle
FALCON 9
Launch site
Air Force Eastern Test Range (AFETR)
Object type
Payload
Rocket body
Debris
Shape & HBR
Box + 1 Pan, 10.1 m
Radar Cross Section
13.562 m², Large (>1 m²)

Expand to show TLE details & history
Last TLE update: 1 day ago

TLE from 1 day ago
0 STARLINK-5586
1 55376U 23013AX  25348.18026255 -.00000615  00000-0 -30419-4 0  9991
2 55376  43.0061  32.2001 0001636 281.6015  78.4644 15.02528415158997
Epoch: 2025-12-14T04:19Z
TLE epoch observation values (Epoch: 2025-12-14T04:19:34.684Z)
Latitude
0.00001°
Longitude
-115.79129°
Altitude
558.655 km
Speed
7.584 km/s
True Right ascension
02h 08m 48s
True Declination
0° 00' 00"
Sunlit
Object was in full shadow at epoch
Visualization orbit readout
Latitude
Unknown
Longitude
Unknown
Altitude
Unknown
Speed
Unknown
Apparent Right ascension
Unknown
Apparent Declination
Unknown
Sunlit
N/A
Visualization observer readout
Local Sidereal Time
13:19:04
Azimuth
Unknown
Elevation
Unknown
Doppler factor
Unknown
Orbital elements
Apogee altitude
562.161 km
Perigee altitude
559.891 km
Semi-major axis
6,939.163 km
Eccentricity
0.00016
Inclination
43.0061°
RAAN
32.2001°
Arg. of periapsis
281.6015°
True anomaly
78.48277°
Mean anomaly
78.4644°
Eccentric anomaly
78.47358°
Mean motion
3.75476 °/min
Orbital period
95.88 mins
BSTAR
-0.000030419
Loading maneuver chart data...
Computing Atmospheric mass density...
Loading historical data...
Loading historical data...
Loading historical data...
Loading historical data...
Loading historical data...
Loading historical data...
Loading historical data...

Documentation

Showing up to 5 results
|